Tracking 31027 objects as of 19-Jul-2025
HD Live streaming from Space Station
objects crossing your sky now

XM-2

Track XM-2 now!
XM-2 is classified as:


NORAD ID: 26724
Int'l Code: 2001-012A
Perigee: 36,095.7 km
Apogee: 36,166.9 km
Inclination: 8.8 °
Period: 1,453.4 minutes
Semi major axis: 42502 km
RCS: 25.1188 m2 (large)
Launch date: March 18, 2001
Source: United States (US)
Launch site: SEA LAUNCH (SEAL)

100 channels of digital music uplinked in the X-band from one or more ground stations.
Your satellite tracking list
Your tracking list is empty




NASA's NSSDC Master Catalog

Two Line Element Set (TLE):
1 26724U 01012A   25199.57387296 -.00000001  00000-0  00000-0 0  9990
2 26724   8.8026  59.8666 0008381  93.3640  76.0075  0.99079563 38938
Source of the keplerian elements: AFSPC